User: anonymous
Location: PACMO
(41.3967°N, 90.3760°W)
Time: 08:51:52
(UTC-05:00)
Language:

NOAA 19 - Orbit

View from above orbital plane
View from above orbital plane
View from above satellite
View from above satellite

Ground track
Ground track

The orbit data is extracted from the following two-line orbital elements,

1 33591U 09005A   14272.46538988  .00000281  00000-0  17863-3 0  4086
2 33591 098.9543 217.2352 0014032 181.1095 286.1038 14.11769998290709
Epoch (UTC): 29 September 2014 11:10:09
Eccentricity: 0.0014032
inclination: 98.9543°
perigee height: 843 km
apogee height: 863 km
right ascension of ascending node: 217.2352°
argument of perigee: 181.1095°
revolutions per day: 14.11769998
mean anomaly at epoch: 286.1038°
orbit number at epoch: 29070

The dashed part of the orbit path shows where the satellite is in the earth's shadow,  

DLR